| time (UTC) | temp F | wind direction | speed MPH | gust MPH | rain 1hr in | rain 24hr in | rain mn in | humidity % | barometer mb |
| 20260902143338 | 61 | 190 | 0.0 | 0.0 | 0.00 | 0.00 | 0.00 | 38 | 1015.8 |
| 20260902142827 | 60 | 190 | 0.0 | 0.0 | 0.00 | 0.00 | 0.00 | 41 | 1015.9 |
| 20260902142340 | 59 | 191 | 0.0 | 0.0 | 0.00 | 0.00 | 0.00 | 42 | 1015.6 |
| 20260902141906 | 58 | 190 | 0.0 | 0.0 | 0.00 | 0.00 | 0.00 | 45 | 1015.7 |
| 20260902141319 | 55 | 190 | 0.0 | 0.0 | 0.00 | 0.00 | 0.00 | 48 | 1015.6 |
| 20260902140927 | 54 | 190 | 0.0 | 0.0 | 0.00 | 0.00 | 0.00 | 47 | 1015.6 |
| 20260902140824 | 54 | 190 | 0.0 | 0.0 | 0.00 | 0.00 | 0.00 | 47 | 1015.6 |
| 20260902140319 | 54 | 191 | 0.0 | 0.0 | 0.00 | 0.00 | 0.00 | 47 | 1015.4 |
| 20260902135851 | 54 | 191 | 0.0 | 0.0 | 0.00 | 0.00 | 0.00 | 47 | 1015.4 |
| 20260902135402 | 54 | 191 | 0.0 | 0.0 | 0.00 | 0.00 | 0.00 | 49 | 1015.3 |
| 20260902135320 | 54 | 191 | 0.0 | 0.0 | 0.00 | 0.00 | 0.00 | 49 | 1015.3 |
| 20260902134811 | 53 | 191 | 0.0 | 0.0 | 0.00 | 0.00 | 0.00 | 49 | 1015.2 |
| 20260902134324 | 53 | 191 | 0.0 | 0.0 | 0.00 | 0.00 | 0.00 | 49 | 1015.1 |
| 20260902133835 | 53 | 191 | 0.0 | 0.0 | 0.00 | 0.00 | 0.00 | 49 | 1015.1 |
| 20260902133325 | 54 | 191 | 0.0 | 0.0 | 0.00 | 0.00 | 0.00 | 48 | 1015.0 |
| 20260902132816 | 54 | 191 | 0.0 | 0.0 | 0.00 | 0.00 | 0.00 | 47 | 1015.1 |
| 20260902132329 | 54 | 191 | 0.0 | 1.0 | 0.00 | 0.00 | 0.00 | 47 | 1015.2 |
| 20260902131820 | 54 | 191 | 0.0 | 1.0 | 0.00 | 0.00 | 0.00 | 47 | 1015.2 |
| 20260902131313 | 54 | 231 | 0.0 | 1.0 | 0.00 | 0.00 | 0.00 | 48 | 1015.1 |
| 20260902130829 | 54 | 232 | 0.0 | 1.0 | 0.00 | 0.00 | 0.00 | 48 | 1015.2 |
| 20260902130320 | 54 | 264 | 0.0 | 1.0 | 0.00 | 0.00 | 0.00 | 48 | 1015.2 |
| 20260902125831 | 54 | 264 | 0.0 | 1.0 | 0.00 | 0.00 | 0.00 | 47 | 1015.1 |
| 20260902125322 | 54 | 141 | 0.0 | 0.0 | 0.00 | 0.00 | 0.00 | 48 | 1015.2 |
| 20260902124834 | 54 | 141 | 0.0 | 0.0 | 0.00 | 0.00 | 0.00 | 47 | 1015.3 |
| 20260902124324 | 54 | 142 | 0.0 | 0.0 | 0.00 | 0.00 | 0.00 | 46 | 1015.4 |
| 20260902123816 | 54 | 141 | 0.0 | 0.0 | 0.00 | 0.00 | 0.00 | 45 | 1015.4 |
| 20260902123328 | 54 | 141 | 0.0 | 0.0 | 0.00 | 0.00 | 0.00 | 45 | 1015.5 |
| 20260902122839 | 55 | 142 | 0.0 | 0.0 | 0.00 | 0.00 | 0.00 | 45 | 1015.5 |
| 20260902122329 | 55 | 142 | 0.0 | 0.0 | 0.00 | 0.00 | 0.00 | 45 | 1015.6 |
| 20260902121824 | 54 | 141 | 0.0 | 0.0 | 0.00 | 0.00 | 0.00 | 45 | 1015.6 |
| 20260902121315 | 54 | 141 | 0.0 | 0.0 | 0.00 | 0.00 | 0.00 | 44 | 1015.7 |
| 20260902120827 | 54 | 142 | 0.0 | 0.0 | 0.00 | 0.00 | 0.00 | 45 | 1015.7 |
| 20260902120319 | 54 | 141 | 0.0 | 0.0 | 0.00 | 0.00 | 0.00 | 45 | 1015.7 |
| 20260902115830 | 54 | 141 | 0.0 | 0.0 | 0.00 | 0.00 | 0.00 | 45 | 1015.9 |
| 20260902115322 | 55 | 142 | 0.0 | 0.0 | 0.00 | 0.00 | 0.00 | 45 | 1015.9 |
| 20260902114813 | 55 | 142 | 0.0 | 0.0 | 0.00 | 0.00 | 0.00 | 45 | 1015.8 |
| 20260902114323 | 54 | 142 | 0.0 | 0.0 | 0.00 | 0.00 | 0.00 | 45 | 1015.8 |
| 20260902113814 | 54 | 141 | 0.0 | 0.0 | 0.00 | 0.00 | 0.00 | 45 | 1015.8 |
| 20260902113330 | 54 | 142 | 0.0 | 0.0 | 0.00 | 0.00 | 0.00 | 45 | 1015.9 |
| 20260902112822 | 55 | 141 | 0.0 | 0.0 | 0.00 | 0.00 | 0.00 | 45 | 1015.7 |
| 20260902112312 | 55 | 141 | 0.0 | 0.0 | 0.00 | 0.00 | 0.00 | 44 | 1015.7 |
| 20260902111823 | 55 | 141 | 0.0 | 0.0 | 0.00 | 0.00 | 0.00 | 43 | 1015.7 |
| 20260902111314 | 55 | 141 | 0.0 | 0.0 | 0.00 | 0.00 | 0.00 | 43 | 1015.8 |
| 20260902110824 | 55 | 141 | 0.0 | 0.0 | 0.00 | 0.00 | 0.00 | 44 | 1015.7 |
| 20260902110315 | 56 | 142 | 0.0 | 0.0 | 0.00 | 0.00 | 0.00 | 44 | 1015.6 |
| 20260902105847 | 56 | 142 | 0.0 | 0.0 | 0.00 | 0.00 | 0.00 | 43 | 1015.7 |
| 20260902105317 | 56 | 141 | 0.0 | 0.0 | 0.00 | 0.00 | 0.00 | 42 | 1015.7 |
| 20260902104828 | 56 | 142 | 0.0 | 0.0 | 0.00 | 0.00 | 0.00 | 42 | 1015.8 |
| 20260902104323 | 56 | 141 | 0.0 | 0.0 | 0.00 | 0.00 | 0.00 | 43 | 1015.8 |
| 20260902103814 | 56 | 141 | 0.0 | 0.0 | 0.00 | 0.00 | 0.00 | 42 | 1015.8 |
| 20260902103325 | 56 | 142 | 0.0 | 0.0 | 0.00 | 0.00 | 0.00 | 42 | 1015.8 |
| 20260902102817 | 57 | 142 | 0.0 | 0.0 | 0.00 | 0.00 | 0.00 | 42 | 1015.9 |
| 20260902102327 | 57 | 142 | 0.0 | 0.0 | 0.00 | 0.00 | 0.00 | 41 | 1015.9 |
| 20260902101818 | 57 | 142 | 0.0 | 0.0 | 0.00 | 0.00 | 0.00 | 41 | 1015.9 |
| 20260902101330 | 57 | 141 | 0.0 | 0.0 | 0.00 | 0.00 | 0.00 | 41 | 1015.9 |
| 20260902100841 | 57 | 141 | 0.0 | 1.0 | 0.00 | 0.00 | 0.00 | 42 | 1015.9 |
| 20260902100312 | 56 | 141 | 0.0 | 0.0 | 0.00 | 0.00 | 0.00 | 43 | 1016.1 |
| 20260902095822 | 56 | 142 | 0.0 | 0.0 | 0.00 | 0.00 | 0.00 | 44 | 1016.0 |
| 20260902095318 | 56 | 141 | 0.0 | 0.0 | 0.00 | 0.00 | 0.00 | 44 | 1016.0 |
| 20260902094829 | 56 | 142 | 0.0 | 0.0 | 0.00 | 0.00 | 0.00 | 44 | 1016.1 |
| 20260902094321 | 56 | 142 | 0.0 | 0.0 | 0.00 | 0.00 | 0.00 | 44 | 1016.1 |
| 20260902093832 | 57 | 142 | 0.0 | 0.0 | 0.00 | 0.00 | 0.00 | 44 | 1016.1 |
| 20260902093322 | 57 | 142 | 0.0 | 0.0 | 0.00 | 0.00 | 0.00 | 43 | 1016.0 |
| 20260902092812 | 57 | 141 | 0.0 | 0.0 | 0.00 | 0.00 | 0.00 | 43 | 1016.1 |
| 20260902092325 | 57 | 142 | 0.0 | 0.0 | 0.00 | 0.00 | 0.00 | 43 | 1016.1 |
| 20260902091818 | 57 | 142 | 0.0 | 0.0 | 0.00 | 0.00 | 0.00 | 43 | 1016.1 |
| 20260902091328 | 57 | 141 | 0.0 | 0.0 | 0.00 | 0.00 | 0.00 | 43 | 1016.2 |
| 20260902090825 | 57 | 141 | 0.0 | 0.0 | 0.00 | 0.00 | 0.00 | 44 | 1016.1 |
| 20260902090315 | 57 | 141 | 0.0 | 0.0 | 0.00 | 0.00 | 0.00 | 43 | 1016.2 |
| 20260902085827 | 58 | 141 | 0.0 | 0.0 | 0.00 | 0.00 | 0.00 | 46 | 1016.3 |
| 20260902085318 | 58 | 142 | 0.0 | 0.0 | 0.00 | 0.00 | 0.00 | 45 | 1016.3 |
| 20260902084830 | 58 | 142 | 0.0 | 0.0 | 0.00 | 0.00 | 0.00 | 44 | 1016.5 |
| 20260902084319 | 58 | 142 | 0.0 | 1.0 | 0.00 | 0.00 | 0.00 | 45 | 1016.3 |
| 20260902083830 | 59 | 141 | 0.0 | 1.0 | 0.00 | 0.00 | 0.00 | 45 | 1016.2 |
| 20260902083322 | 59 | 142 | 0.0 | 0.0 | 0.00 | 0.00 | 0.00 | 45 | 1016.2 |
| 20260902082813 | 59 | 141 | 0.0 | 0.0 | 0.00 | 0.00 | 0.00 | 44 | 1016.2 |
| 20260902082325 | 60 | 141 | 0.0 | 0.0 | 0.00 | 0.00 | 0.00 | 42 | 1016.2 |
| 20260902081821 | 60 | 142 | 0.0 | 0.0 | 0.00 | 0.00 | 0.00 | 42 | 1016.2 |
| 20260902081333 | 59 | 141 | 0.0 | 0.0 | 0.00 | 0.00 | 0.00 | 43 | 1016.2 |
| 20260902080823 | 60 | 141 | 0.0 | 0.0 | 0.00 | 0.00 | 0.00 | 42 | 1016.1 |
| 20260902080315 | 60 | 141 | 0.0 | 0.0 | 0.00 | 0.00 | 0.00 | 42 | 1016.2 |
| 20260902075847 | 60 | 141 | 0.0 | 0.0 | 0.00 | 0.00 | 0.00 | 43 | 1016.2 |
| 20260902075337 | 60 | 141 | 0.0 | 0.0 | 0.00 | 0.00 | 0.00 | 41 | 1016.2 |
| 20260902074828 | 60 | 142 | 0.0 | 0.0 | 0.00 | 0.00 | 0.00 | 41 | 1016.1 |
| 20260902074321 | 61 | 141 | 0.0 | 0.0 | 0.00 | 0.00 | 0.00 | 41 | 1016.1 |
| 20260902073811 | 61 | 141 | 0.0 | 0.0 | 0.00 | 0.00 | 0.00 | 41 | 1016.0 |
| 20260902073322 | 61 | 141 | 0.0 | 1.0 | 0.00 | 0.00 | 0.00 | 40 | 1016.0 |
| 20260902072818 | 61 | 141 | 0.0 | 1.0 | 0.00 | 0.00 | 0.00 | 40 | 1016.0 |
| 20260902072330 | 61 | 141 | 0.0 | 0.0 | 0.00 | 0.00 | 0.00 | 40 | 1015.8 |
| 20260902071822 | 62 | 142 | 0.0 | 0.0 | 0.00 | 0.00 | 0.00 | 40 | 1015.8 |
| 20260902071311 | 61 | 141 | 0.0 | 0.0 | 0.00 | 0.00 | 0.00 | 40 | 1015.7 |
| 20260902070823 | 61 | 141 | 0.0 | 0.0 | 0.00 | 0.00 | 0.00 | 41 | 1015.7 |
| 20260902070314 | 61 | 141 | 0.0 | 0.0 | 0.00 | 0.00 | 0.00 | 39 | 1015.5 |
| 20260902065827 | 62 | 141 | 0.0 | 0.0 | 0.00 | 0.00 | 0.00 | 39 | 1015.4 |
| 20260902065339 | 62 | 141 | 0.0 | 0.0 | 0.00 | 0.00 | 0.00 | 39 | 1015.4 |
| 20260902064829 | 63 | 141 | 0.0 | 0.0 | 0.00 | 0.00 | 0.00 | 39 | 1015.4 |
| 20260902064320 | 63 | 142 | 0.0 | 0.0 | 0.00 | 0.00 | 0.00 | 38 | 1015.4 |
| 20260902063836 | 63 | 141 | 0.0 | 0.0 | 0.00 | 0.00 | 0.00 | 38 | 1015.4 |
| 20260902063326 | 64 | 141 | 0.0 | 0.0 | 0.00 | 0.00 | 0.00 | 38 | 1015.5 |
| 20260902062837 | 64 | 141 | 0.0 | 0.0 | 0.00 | 0.00 | 0.00 | 37 | 1015.5 |
| 20260902062326 | 64 | 141 | 0.0 | 0.0 | 0.00 | 0.00 | 0.00 | 36 | 1015.3 |
| 20260902061818 | 65 | 142 | 0.0 | 0.0 | 0.00 | 0.00 | 0.00 | 37 | 1015.3 |
| 20260902061330 | 65 | 141 | 0.0 | 0.0 | 0.00 | 0.00 | 0.00 | 36 | 1015.2 |
| 20260902060822 | 65 | 141 | 0.0 | 0.0 | 0.00 | 0.00 | 0.00 | 36 | 1015.3 |
| 20260902060334 | 66 | 141 | 0.0 | 1.0 | 0.00 | 0.00 | 0.00 | 36 | 1015.2 |
| 20260902055825 | 66 | 141 | 0.0 | 0.0 | 0.00 | 0.00 | 0.00 | 36 | 1015.3 |
| 20260902055336 | 66 | 141 | 0.0 | 0.0 | 0.00 | 0.00 | 0.00 | 34 | 1015.3 |
| 20260902054827 | 67 | 141 | 0.0 | 0.0 | 0.00 | 0.00 | 0.00 | 34 | 1015.1 |
| 20260902054321 | 67 | 141 | 0.0 | 0.0 | 0.00 | 0.00 | 0.00 | 34 | 1015.2 |
| 20260902053813 | 68 | 142 | 0.0 | 0.0 | 0.00 | 0.00 | 0.00 | 34 | 1015.1 |
| 20260902053324 | 68 | 141 | 0.0 | 0.0 | 0.00 | 0.00 | 0.00 | 33 | 1015.2 |
| 20260902052815 | 69 | 142 | 0.0 | 1.0 | 0.00 | 0.00 | 0.00 | 33 | 1015.1 |
| 20260902052326 | 69 | 141 | 0.0 | 1.0 | 0.00 | 0.00 | 0.00 | 33 | 1015.1 |
| 20260902051817 | 69 | 179 | 0.0 | 0.0 | 0.00 | 0.00 | 0.00 | 33 | 1015.2 |
| 20260902051329 | 69 | 219 | 0.0 | 0.0 | 0.00 | 0.00 | 0.00 | 33 | 1015.1 |
| 20260902050819 | 69 | 219 | 0.0 | 0.0 | 0.00 | 0.00 | 0.00 | 33 | 1015.2 |
| 20260902050330 | 69 | 219 | 0.0 | 0.0 | 0.00 | 0.00 | 0.00 | 33 | 1015.2 |
| 20260902045826 | 70 | 219 | 0.0 | 0.0 | 0.00 | 0.00 | 0.00 | 33 | 1015.2 |
| 20260902045317 | 70 | 219 | 0.0 | 1.0 | 0.00 | 0.00 | 0.00 | 32 | 1015.2 |
| 20260902044829 | 70 | 219 | 0.0 | 1.0 | 0.00 | 0.00 | 0.00 | 33 | 1015.1 |
| 20260902044320 | 70 | 219 | 0.0 | 0.0 | 0.00 | 0.00 | 0.00 | 32 | 1014.9 |
| 20260902043831 | 70 | 219 | 0.0 | 0.0 | 0.00 | 0.00 | 0.00 | 32 | 1014.8 |
| 20260902043322 | 71 | 219 | 0.0 | 0.0 | 0.00 | 0.00 | 0.00 | 31 | 1014.8 |
| 20260902042813 | 71 | 219 | 0.0 | 1.0 | 0.00 | 0.00 | 0.00 | 31 | 1014.8 |
| 20260902042324 | 72 | 219 | 0.0 | 1.0 | 0.00 | 0.00 | 0.00 | 31 | 1014.7 |
| 20260902041821 | 72 | 219 | 0.0 | 1.0 | 0.00 | 0.00 | 0.00 | 31 | 1014.6 |
| 20260902041313 | 72 | 219 | 0.0 | 1.0 | 0.00 | 0.00 | 0.00 | 30 | 1014.5 |
| 20260902040824 | 72 | 219 | 0.0 | 0.0 | 0.00 | 0.00 | 0.00 | 30 | 1014.4 |
| 20260902040315 | 72 | 219 | 0.0 | 0.0 | 0.00 | 0.00 | 0.00 | 30 | 1014.4 |
| 20260902035828 | 73 | 219 | 0.0 | 0.0 | 0.00 | 0.00 | 0.00 | 30 | 1014.4 |
| 20260902035319 | 73 | 219 | 0.0 | 0.0 | 0.00 | 0.00 | 0.00 | 29 | 1014.2 |
| 20260902034811 | 74 | 219 | 0.0 | 0.0 | 0.00 | 0.00 | 0.00 | 29 | 1014.3 |
| 20260902034323 | 74 | 219 | 0.0 | 0.0 | 0.00 | 0.00 | 0.00 | 28 | 1014.2 |
| 20260902033814 | 74 | 219 | 0.0 | 0.0 | 0.00 | 0.00 | 0.00 | 27 | 1014.1 |
| 20260902033345 | 75 | 219 | 0.0 | 0.0 | 0.00 | 0.00 | 0.00 | 27 | 1014.1 |
| 20260902032819 | 75 | 219 | 0.0 | 2.0 | 0.00 | 0.00 | 0.00 | 27 | 1014.0 |
| 20260902032351 | 76 | 219 | 0.0 | 2.0 | 0.00 | 0.00 | 0.00 | 27 | 1014.0 |
| 20260902031821 | 76 | 139 | 0.0 | 1.0 | 0.00 | 0.00 | 0.00 | 27 | 1013.9 |
| 20260902031313 | 76 | 139 | 0.0 | 3.0 | 0.00 | 0.00 | 0.00 | 27 | 1013.9 |
| 20260902030825 | 77 | 139 | 0.0 | 5.0 | 0.00 | 0.00 | 0.00 | 27 | 1013.8 |
| 20260902030316 | 77 | 231 | 2.0 | 6.0 | 0.00 | 0.00 | 0.00 | 27 | 1013.6 |
| 20260902025828 | 77 | 185 | 3.0 | 6.0 | 0.00 | 0.00 | 0.00 | 27 | 1013.7 |
| 20260902025319 | 78 | 231 | 3.0 | 7.0 | 0.00 | 0.00 | 0.00 | 27 | 1013.7 |
| 20260902024851 | 78 | 206 | 2.0 | 7.0 | 0.00 | 0.00 | 0.00 | 28 | 1013.7 |
| 20260902024324 | 78 | 203 | 3.0 | 6.0 | 0.00 | 0.00 | 0.00 | 28 | 1013.6 |
| 20260902023836 | 78 | 226 | 1.0 | 5.0 | 0.00 | 0.00 | 0.00 | 28 | 1013.6 |
| 20260902023327 | 79 | 225 | 3.0 | 6.0 | 0.00 | 0.00 | 0.00 | 28 | 1013.4 |
| 20260902022817 | 79 | 197 | 3.0 | 6.0 | 0.00 | 0.00 | 0.00 | 28 | 1013.4 |
| 20260902022328 | 79 | 259 | 4.0 | 9.0 | 0.00 | 0.00 | 0.00 | 28 | 1013.4 |
| 20260902021820 | 80 | 228 | 4.0 | 10.0 | 0.00 | 0.00 | 0.00 | 28 | 1013.3 |
| 20260902021311 | 80 | 210 | 4.0 | 10.0 | 0.00 | 0.00 | 0.00 | 28 | 1013.2 |
| 20260902020822 | 81 | 230 | 4.0 | 11.0 | 0.00 | 0.00 | 0.00 | 27 | 1013.2 |
| 20260902020313 | 81 | 188 | 5.0 | 11.0 | 0.00 | 0.00 | 0.00 | 27 | 1013.1 |
| 20260902015825 | 81 | 210 | 6.0 | 10.0 | 0.00 | 0.00 | 0.00 | 26 | 1013.1 |
| 20260902015319 | 82 | 229 | 4.0 | 8.0 | 0.00 | 0.00 | 0.00 | 26 | 1013.2 |
| 20260902014831 | 82 | 210 | 4.0 | 10.0 | 0.00 | 0.00 | 0.00 | 25 | 1013.1 |
| 20260902014322 | 82 | 219 | 5.0 | 13.0 | 0.00 | 0.00 | 0.00 | 25 | 1013.0 |
| 20260902013834 | 82 | 219 | 7.0 | 12.0 | 0.00 | 0.00 | 0.00 | 24 | 1013.0 |
| 20260902013324 | 83 | 263 | 6.0 | 14.0 | 0.00 | 0.00 | 0.00 | 24 | 1013.0 |
| 20260902012814 | 83 | 205 | 5.0 | 14.0 | 0.00 | 0.00 | 0.00 | 24 | 1013.0 |
| 20260902012347 | 84 | 226 | 5.0 | 12.0 | 0.00 | 0.00 | 0.00 | 23 | 1013.0 |
| 20260902011817 | 84 | 184 | 3.0 | 12.0 | 0.00 | 0.00 | 0.00 | 23 | 1013.0 |
| 20260902011328 | 85 | 229 | 4.0 | 11.0 | 0.00 | 0.00 | 0.00 | 22 | 1012.9 |
| 20260902010819 | 85 | 116 | 2.0 | 12.0 | 0.00 | 0.00 | 0.00 | 21 | 1012.8 |
| 20260902010329 | 85 | 164 | 4.0 | 12.0 | 0.00 | 0.00 | 0.00 | 21 | 1012.8 |
| 20260902005820 | 86 | 139 | 4.0 | 11.0 | 0.00 | 0.00 | 0.00 | 21 | 1012.8 |
| 20260902005315 | 86 | 240 | 6.0 | 12.0 | 0.00 | 0.00 | 0.00 | 21 | 1012.8 |
| 20260902004826 | 86 | 205 | 5.0 | 13.0 | 0.00 | 0.00 | 0.00 | 21 | 1012.8 |
| 20260902004319 | 86 | 221 | 7.0 | 13.0 | 0.00 | 0.00 | 0.00 | 21 | 1012.9 |
| 20260902003830 | 87 | 221 | 8.0 | 13.0 | 0.00 | 0.00 | 0.00 | 21 | 1012.9 |
| 20260902003322 | 87 | 226 | 4.0 | 11.0 | 0.00 | 0.00 | 0.00 | 22 | 1012.9 |
| 20260902002813 | 87 | 229 | 8.0 | 13.0 | 0.00 | 0.00 | 0.00 | 22 | 1012.8 |
| 20260902002345 | 87 | 216 | 8.0 | 13.0 | 0.00 | 0.00 | 0.00 | 22 | 1012.8 |
| 20260902001815 | 88 | 224 | 4.0 | 12.0 | 0.00 | 0.00 | 0.00 | 22 | 1012.8 |
| 20260902001348 | 88 | 225 | 5.0 | 12.0 | 0.00 | 0.00 | 0.00 | 22 | 1012.8 |
| 20260902000818 | 88 | 203 | 6.0 | 13.0 | 0.00 | 0.00 | 0.00 | 22 | 1012.8 |
| 20260902000314 | 88 | 221 | 5.0 | 13.0 | 0.00 | 0.00 | 0.00 | 22 | 1012.8 |
| 20260901235825 | 88 | 164 | 5.0 | 13.0 | 0.00 | 0.00 | 0.00 | 22 | 1012.9 |
| 20260901235315 | 88 | 236 | 4.0 | 12.0 | 0.00 | 0.00 | 0.00 | 23 | 1012.8 |
| 20260901234848 | 88 | 224 | 5.0 | 13.0 | 0.00 | 0.00 | 0.00 | 23 | 1012.8 |
| 20260901234317 | 88 | 188 | 8.0 | 15.0 | 0.00 | 0.00 | 0.00 | 23 | 1012.8 |
| 20260901233849 | 88 | 223 | 7.0 | 14.0 | 0.00 | 0.00 | 0.00 | 23 | 1012.7 |
| 20260901233339 | 89 | 210 | 6.0 | 13.0 | 0.00 | 0.00 | 0.00 | 24 | 1012.9 |
| 20260901232849 | 89 | 227 | 4.0 | 13.0 | 0.00 | 0.00 | 0.00 | 23 | 1012.9 |
| 20260901232321 | 89 | 206 | 6.0 | 13.0 | 0.00 | 0.00 | 0.00 | 24 | 1013.0 |
| 20260901231812 | 90 | 170 | 6.0 | 12.0 | 0.00 | 0.00 | 0.00 | 24 | 1012.9 |
| 20260901231324 | 90 | 242 | 4.0 | 11.0 | 0.00 | 0.00 | 0.00 | 24 | 1012.9 |
| 20260901230820 | 90 | 224 | 5.0 | 10.0 | 0.00 | 0.00 | 0.00 | 24 | 1012.8 |
| 20260901230311 | 90 | 226 | 3.0 | 13.0 | 0.00 | 0.00 | 0.00 | 24 | 1013.0 |
| 20260901225823 | 90 | 156 | 7.0 | 13.0 | 0.00 | 0.00 | 0.00 | 24 | 1012.9 |
| 20260901225316 | 90 | 220 | 6.0 | 11.0 | 0.00 | 0.00 | 0.00 | 23 | 1012.9 |
| 20260901224828 | 90 | 210 | 5.0 | 10.0 | 0.00 | 0.00 | 0.00 | 24 | 1012.9 |
| 20260901224319 | 90 | 208 | 3.0 | 11.0 | 0.00 | 0.00 | 0.00 | 24 | 1012.9 |
| 20260901223811 | 91 | 198 | 4.0 | 10.0 | 0.00 | 0.00 | 0.00 | 22 | 1013.0 |
| 20260901223323 | 91 | 232 | 5.0 | 10.0 | 0.00 | 0.00 | 0.00 | 22 | 1013.1 |
| 20260901222819 | 91 | 211 | 5.0 | 10.0 | 0.00 | 0.00 | 0.00 | 20 | 1013.2 |
| 20260901222352 | 91 | 218 | 3.0 | 12.0 | 0.00 | 0.00 | 0.00 | 21 | 1013.2 |
| 20260901221822 | 91 | 248 | 4.0 | 10.0 | 0.00 | 0.00 | 0.00 | 20 | 1013.3 |
| 20260901221313 | 91 | 219 | 4.0 | 8.0 | 0.00 | 0.00 | 0.00 | 20 | 1013.2 |
| 20260901220825 | 91 | 188 | 2.0 | 12.0 | 0.00 | 0.00 | 0.00 | 21 | 1013.3 |
| 20260901220316 | 91 | 203 | 4.0 | 12.0 | 0.00 | 0.00 | 0.00 | 20 | 1013.3 |
| 20260901215827 | 90 | 195 | 2.0 | 12.0 | 0.00 | 0.00 | 0.00 | 20 | 1013.4 |
| 20260901215318 | 90 | 217 | 5.0 | 12.0 | 0.00 | 0.00 | 0.00 | 21 | 1013.4 |
| 20260901214829 | 90 | 204 | 3.0 | 8.0 | 0.00 | 0.00 | 0.00 | 20 | 1013.7 |
| 20260901214325 | 90 | 91 | 4.0 | 12.0 | 0.00 | 0.00 | 0.00 | 20 | 1013.7 |
| 20260901213816 | 90 | 224 | 5.0 | 11.0 | 0.00 | 0.00 | 0.00 | 20 | 1013.6 |
| 20260901213348 | 90 | 223 | 2.0 | 9.0 | 0.00 | 0.00 | 0.00 | 20 | 1013.7 |
| 20260901212816 | 90 | 260 | 2.0 | 10.0 | 0.00 | 0.00 | 0.00 | 20 | 1013.7 |
| 20260901212347 | 90 | 225 | 6.0 | 14.0 | 0.00 | 0.00 | 0.00 | 19 | 1013.7 |
| 20260901211817 | 90 | 250 | 7.0 | 14.0 | 0.00 | 0.00 | 0.00 | 20 | 1013.9 |
| 20260901211329 | 90 | 279 | 2.0 | 5.0 | 0.00 | 0.00 | 0.00 | 19 | 1013.7 |
| 20260901210820 | 90 | 198 | 2.0 | 9.0 | 0.00 | 0.00 | 0.00 | 19 | 1013.9 |
| 20260901210313 | 89 | 229 | 5.0 | 9.0 | 0.00 | 0.00 | 0.00 | 18 | 1013.9 |
| 20260901205845 | 90 | 264 | 4.0 | 8.0 | 0.00 | 0.00 | 0.00 | 18 | 1013.8 |
| 20260901205335 | 90 | 219 | 4.0 | 8.0 | 0.00 | 0.00 | 0.00 | 18 | 1013.8 |
| 20260901204825 | 90 | 219 | 1.0 | 9.0 | 0.00 | 0.00 | 0.00 | 17 | 1013.9 |
| 20260901204321 | 90 | 226 | 4.0 | 9.0 | 0.00 | 0.00 | 0.00 | 16 | 1014.0 |
| 20260901203832 | 90 | 232 | 1.0 | 6.0 | 0.00 | 0.00 | 0.00 | 16 | 1014.0 |
| 20260901203343 | 90 | 224 | 3.0 | 9.0 | 0.00 | 0.00 | 0.00 | 16 | 1014.1 |
| 20260901202834 | 90 | 177 | 2.0 | 9.0 | 0.00 | 0.00 | 0.00 | 16 | 1014.3 |
| 20260901202325 | 90 | 248 | 2.0 | 9.0 | 0.00 | 0.00 | 0.00 | 15 | 1014.4 |
| 20260901201817 | 89 | 266 | 3.0 | 11.0 | 0.00 | 0.00 | 0.00 | 15 | 1014.5 |
| 20260901201327 | 89 | 270 | 6.0 | 11.0 | 0.00 | 0.00 | 0.00 | 15 | 1014.5 |
| 20260901200819 | 89 | 243 | 4.0 | 9.0 | 0.00 | 0.00 | 0.00 | 14 | 1014.6 |
| 20260901200311 | 89 | 203 | 3.0 | 9.0 | 0.00 | 0.00 | 0.00 | 14 | 1014.6 |
| 20260901195842 | 89 | 191 | 4.0 | 9.0 | 0.00 | 0.00 | 0.00 | 15 | 1014.6 |
| 20260901195318 | 89 | 175 | 4.0 | 10.0 | 0.00 | 0.00 | 0.00 | 15 | 1014.7 |
| 20260901194829 | 89 | 225 | 2.0 | 5.0 | 0.00 | 0.00 | 0.00 | 14 | 1014.7 |
| 20260901194320 | 88 | 272 | 3.0 | 6.0 | 0.00 | 0.00 | 0.00 | 15 | 1014.8 |
| 20260901193811 | 88 | 266 | 3.0 | 6.0 | 0.00 | 0.00 | 0.00 | 15 | 1014.8 |
| 20260901193322 | 87 | 203 | 3.0 | 6.0 | 0.00 | 0.00 | 0.00 | 17 | 1014.9 |
| 20260901192813 | 87 | 354 | 2.0 | 8.0 | 0.00 | 0.00 | 0.00 | 17 | 1015.0 |
| 20260901192324 | 87 | 275 | 2.0 | 6.0 | 0.00 | 0.00 | 0.00 | 17 | 1015.1 |
| 20260901191815 | 87 | 323 | 2.0 | 8.0 | 0.00 | 0.00 | 0.00 | 18 | 1015.1 |
| 20260901191328 | 87 | 278 | 3.0 | 8.0 | 0.00 | 0.00 | 0.00 | 17 | 1015.2 |
| 20260901190818 | 86 | 288 | 1.0 | 6.0 | 0.00 | 0.00 | 0.00 | 18 | 1015.2 |
| 20260901190313 | 86 | 96 | 2.0 | 7.0 | 0.00 | 0.00 | 0.00 | 20 | 1015.2 |
| 20260901185824 | 86 | 233 | 4.0 | 7.0 | 0.00 | 0.00 | 0.00 | 19 | 1015.3 |
| 20260901185337 | 86 | 251 | 2.0 | 9.0 | 0.00 | 0.00 | 0.00 | 21 | 1015.3 |
| 20260901184828 | 86 | 304 | 4.0 | 9.0 | 0.00 | 0.00 | 0.00 | 20 | 1015.4 |
| 20260901184320 | 86 | 261 | 3.0 | 6.0 | 0.00 | 0.00 | 0.00 | 21 | 1015.5 |
| 20260901183831 | 85 | 288 | 1.0 | 6.0 | 0.00 | 0.00 | 0.00 | 21 | 1015.4 |
| 20260901183343 | 85 | 249 | 1.0 | 6.0 | 0.00 | 0.00 | 0.00 | 21 | 1015.5 |
| 20260901182834 | 85 | 46 | 2.0 | 6.0 | 0.00 | 0.00 | 0.00 | 21 | 1015.5 |
| 20260901182324 | 85 | 277 | 1.0 | 4.0 | 0.00 | 0.00 | 0.00 | 21 | 1015.5 |
| 20260901181815 | 84 | 252 | 2.0 | 4.0 | 0.00 | 0.00 | 0.00 | 22 | 1015.6 |
| 20260901181312 | 85 | 235 | 2.0 | 7.0 | 0.00 | 0.00 | 0.00 | 21 | 1015.5 |
| 20260901180822 | 84 | 273 | 2.0 | 7.0 | 0.00 | 0.00 | 0.00 | 22 | 1015.6 |
| 20260901180313 | 84 | 215 | 1.0 | 4.0 | 0.00 | 0.00 | 0.00 | 23 | 1015.6 |
| 20260901175824 | 83 | 245 | 2.0 | 4.0 | 0.00 | 0.00 | 0.00 | 22 | 1015.6 |
| 20260901175315 | 83 | 198 | 1.0 | 6.0 | 0.00 | 0.00 | 0.00 | 22 | 1015.7 |
| 20260901174827 | 82 | 234 | 1.0 | 6.0 | 0.00 | 0.00 | 0.00 | 24 | 1015.6 |
| 20260901174339 | 82 | 304 | 2.0 | 5.0 | 0.00 | 0.00 | 0.00 | 25 | 1015.7 |
| 20260901173829 | 81 | 288 | 0.0 | 4.0 | 0.00 | 0.00 | 0.00 | 23 | 1015.6 |
| 20260901173322 | 81 | 280 | 2.0 | 4.0 | 0.00 | 0.00 | 0.00 | 25 | 1015.7 |
| 20260901172812 | 80 | 210 | 1.0 | 5.0 | 0.00 | 0.00 | 0.00 | 27 | 1015.7 |
| 20260901172328 | 79 | 300 | 3.0 | 5.0 | 0.00 | 0.00 | 0.00 | 26 | 1015.5 |
| 20260901171818 | 79 | 293 | 1.0 | 4.0 | 0.00 | 0.00 | 0.00 | 28 | 1015.5 |
| 20260901171350 | 79 | 310 | 2.0 | 4.0 | 0.00 | 0.00 | 0.00 | 28 | 1015.6 |
| 20260901170840 | 78 | 300 | 2.0 | 4.0 | 0.00 | 0.00 | 0.00 | 28 | 1015.6 |
| 20260901170330 | 78 | 300 | 1.0 | 4.0 | 0.00 | 0.00 | 0.00 | 29 | 1015.6 |
| 20260901165822 | 78 | 309 | 1.0 | 4.0 | 0.00 | 0.00 | 0.00 | 29 | 1015.6 |
| 20260901165314 | 77 | 302 | 2.0 | 4.0 | 0.00 | 0.00 | 0.00 | 29 | 1015.5 |
| 20260901164826 | 77 | 338 | 1.0 | 4.0 | 0.00 | 0.00 | 0.00 | 29 | 1015.5 |
| 20260901164318 | 77 | 283 | 2.0 | 4.0 | 0.00 | 0.00 | 0.00 | 29 | 1015.5 |
| 20260901163830 | 76 | 318 | 2.0 | 4.0 | 0.00 | 0.00 | 0.00 | 29 | 1015.5 |
| 20260901163326 | 76 | 268 | 1.0 | 4.0 | 0.00 | 0.00 | 0.00 | 29 | 1015.5 |
| 20260901162817 | 75 | 309 | 2.0 | 4.0 | 0.00 | 0.00 | 0.00 | 30 | 1015.5 |
| 20260901162328 | 75 | 27 | 1.0 | 3.0 | 0.00 | 0.00 | 0.00 | 30 | 1015.4 |
| 20260901161819 | 74 | 310 | 1.0 | 3.0 | 0.00 | 0.00 | 0.00 | 31 | 1015.5 |
| 20260901161330 | 74 | 293 | 0.0 | 2.0 | 0.00 | 0.00 | 0.00 | 33 | 1015.4 |
| 20260901160823 | 73 | 306 | 1.0 | 3.0 | 0.00 | 0.00 | 0.00 | 34 | 1015.4 |
| 20260901160314 | 73 | 312 | 1.0 | 3.0 | 0.00 | 0.00 | 0.00 | 34 | 1015.4 |
| 20260901155825 | 72 | 304 | 1.0 | 3.0 | 0.00 | 0.00 | 0.00 | 34 | 1015.4 |
| 20260901155316 | 72 | 335 | 0.0 | 3.0 | 0.00 | 0.00 | 0.00 | 35 | 1015.3 |
| 20260901154849 | 72 | 311 | 1.0 | 3.0 | 0.00 | 0.00 | 0.00 | 34 | 1015.3 |
| 20260901154322 | 72 | 306 | 0.0 | 2.0 | 0.00 | 0.00 | 0.00 | 34 | 1015.3 |
| 20260901153813 | 72 | 275 | 0.0 | 0.0 | 0.00 | 0.00 | 0.00 | 32 | 1015.2 |
| 20260901153324 | 71 | 314 | 0.0 | 0.0 | 0.00 | 0.00 | 0.00 | 32 | 1015.3 |
| 20260901152816 | 71 | 134 | 0.0 | 0.0 | 0.00 | 0.00 | 0.00 | 32 | 1015.3 |
| 20260901152326 | 72 | 134 | 0.0 | 0.0 | 0.00 | 0.00 | 0.00 | 31 | 1015.3 |
| 20260901151817 | 72 | 127 | 0.0 | 0.0 | 0.00 | 0.00 | 0.00 | 30 | 1015.2 |
| 20260901151330 | 72 | 127 | 0.0 | 0.0 | 0.00 | 0.00 | 0.00 | 30 | 1015.3 |
| 20260901150822 | 71 | 127 | 0.0 | 0.0 | 0.00 | 0.00 | 0.00 | 31 | 1015.1 |
| 20260901150317 | 70 | 127 | 0.0 | 0.0 | 0.00 | 0.00 | 0.00 | 32 | 1015.1 |
| 20260901145829 | 70 | 127 | 0.0 | 0.0 | 0.00 | 0.00 | 0.00 | 33 | 1015.2 |
| 20260901145321 | 70 | 108 | 0.0 | 0.0 | 0.00 | 0.00 | 0.00 | 34 | 1015.1 |
| 20260901144831 | 70 | 125 | 0.0 | 0.0 | 0.00 | 0.00 | 0.00 | 35 | 1015.2 |
| 20260901144343 | 69 | 125 | 0.0 | 0.0 | 0.00 | 0.00 | 0.00 | 36 | 1015.2 |
| 20260901143814 | 66 | 125 | 0.0 | 0.0 | 0.00 | 0.00 | 0.00 | 39 | 1015.1 |